Retour au catalogue

FALCON 9 R/B

LostHEO
NORAD 63103·ROCKET BODY·🇺🇸 United States

Lancé Feb 27, 2025 depuis Cape Canaveral Space Force Station

Loading…

Prochains Passages (prochaines 24 heures)

TLE

PériméSource: Space-Track

Époque: Feb 27, 2025, 00:53 UTC

1 63103U 25038E   25058.03746186 -.00007054  00000-0  00000-0 0  9993
2 63103  28.5200 357.2438 9653600 216.4100   0.0142  0.10463308    09

Suivez FALCON 9 R/B en temps réel avec AllMySat

Download on the App Store